When you browse on this site, cookies collect data to enhance your experience and personalize the content and advertising you see.
Visit our Privacy Policy to learn more. By continuing to use the site, you agree to this use of cookies and data.
EN

Hourly Weather Gogolevka

Today, 24 September, Thursday

Time Temperature Precipitation Wind Pressure Humidity
00:00 +7°C° 0 mm 4 mps 735 mmHg 76%
01:00 +7°C° 0 mm 4 mps 736 mmHg 77%
02:00 +6°C° 0 mm 4 mps 736 mmHg 78%
03:00 +7°C° 0 mm 3 mps 737 mmHg 79%
04:00 +5°C° 0 mm 3 mps 738 mmHg 80%
05:00 +5°C° 0 mm 3 mps 739 mmHg 79%
06:00 +5°C° 0 mm 4 mps 739 mmHg 78%
07:00 +5°C° 0 mm 4 mps 740 mmHg 77%
08:00 +7°C° 0 mm 4 mps 740 mmHg 67%
09:00 +8°C° 0 mm 4 mps 741 mmHg 57%
10:00 +11°C° 0 mm 4 mps 741 mmHg 47%
11:00 +12°C° 0 mm 4 mps 741 mmHg 43%
12:00 +13°C° 0 mm 4 mps 742 mmHg 39%
13:00 +14°C° 0 mm 4 mps 742 mmHg 35%
14:00 +14°C° 0 mm 3 mps 742 mmHg 35%
15:00 +14°C° 0 mm 3 mps 743 mmHg 34%
16:00 +16°C° 0 mm 3 mps 743 mmHg 33%
17:00 +14°C° 0 mm 2 mps 743 mmHg 38%
18:00 +13°C° 0 mm 2 mps 744 mmHg 43%
19:00 +10°C° 0 mm 2 mps 744 mmHg 48%
20:00 +10°C° 0 mm 2 mps 744 mmHg 53%
21:00 +9°C° 0 mm 2 mps 745 mmHg 58%
22:00 +8°C° 0 mm 3 mps 746 mmHg 63%
23:00 +8°C° 0 mm 2 mps 746 mmHg 67%

Tomorrow, 25 September, Friday

Time Temperature Precipitation Wind Pressure Humidity
00:00 +7°C° 0 mm 2 mps 746 mmHg 70%
01:00 +7°C° 0 mm 2 mps 746 mmHg 73%
02:00 +6°C° 0 mm 2 mps 746 mmHg 74%
03:00 +7°C° 0 mm 1 mps 747 mmHg 76%
04:00 +7°C° 0 mm 1 mps 747 mmHg 77%
05:00 +7°C° 0 mm 1 mps 747 mmHg 76%
06:00 +7°C° 0 mm 1 mps 747 mmHg 76%
07:00 +7°C° 0 mm 1 mps 747 mmHg 75%
08:00 +8°C° 0 mm 1 mps 748 mmHg 68%
09:00 +9°C° 0 mm 2 mps 748 mmHg 60%
10:00 +10°C° 0 mm 2 mps 748 mmHg 53%
11:00 +12°C° 0 mm 2 mps 748 mmHg 48%
12:00 +13°C° 0 mm 2 mps 747 mmHg 43%
13:00 +13°C° 0 mm 3 mps 747 mmHg 38%
14:00 +15°C° 0 mm 2 mps 747 mmHg 37%
15:00 +15°C° 0 mm 2 mps 747 mmHg 36%
16:00 +15°C° 0 mm 2 mps 747 mmHg 35%
17:00 +14°C° 0 mm 2 mps 747 mmHg 39%
18:00 +13°C° 0 mm 2 mps 747 mmHg 43%
19:00 +10°C° 0 mm 2 mps 747 mmHg 47%
20:00 +10°C° 0 mm 2 mps 748 mmHg 50%
21:00 +9°C° 0 mm 2 mps 748 mmHg 52%
22:00 +9°C° 0 mm 2 mps 748 mmHg 54%
23:00 +8°C° 0 mm 2 mps 748 mmHg 56%

Day after tomorrow, 26 September, Saturday

Time Temperature Precipitation Wind Pressure Humidity
00:00 +8°C° 0 mm 2 mps 748 mmHg 59%
01:00 +7°C° 0 mm 2 mps 748 mmHg 61%
02:00 +7°C° 0 mm 2 mps 748 mmHg 63%
03:00 +7°C° 0 mm 2 mps 749 mmHg 66%
04:00 +7°C° 0 mm 1 mps 749 mmHg 68%
05:00 +6°C° 0 mm 2 mps 749 mmHg 70%
06:00 +6°C° 0 mm 2 mps 749 mmHg 71%
07:00 +6°C° 0 mm 2 mps 749 mmHg 72%
08:00 +8°C° 0 mm 2 mps 749 mmHg 66%
09:00 +10°C° 0 mm 2 mps 749 mmHg 59%
10:00 +11°C° 0 mm 3 mps 750 mmHg 52%
11:00 +12°C° 0 mm 3 mps 749 mmHg 48%
12:00 +13°C° 0 mm 3 mps 749 mmHg 44%
13:00 +14°C° 0 mm 3 mps 749 mmHg 39%
14:00 +14°C° 0 mm 3 mps 749 mmHg 38%
15:00 +14°C° 0 mm 3 mps 749 mmHg 38%
16:00 +15°C° 0 mm 2 mps 749 mmHg 37%
17:00 +14°C° 0 mm 2 mps 749 mmHg 41%
18:00 +13°C° 0 mm 2 mps 749 mmHg 45%
19:00 +12°C° 0 mm 2 mps 749 mmHg 49%
20:00 +10°C° 0 mm 2 mps 749 mmHg 51%
21:00 +10°C° 0 mm 2 mps 749 mmHg 53%
22:00 +9°C° 0 mm 2 mps 750 mmHg 56%
23:00 +8°C° 0 mm 2 mps 750 mmHg 58%

27 September, Sunday

Time Temperature Precipitation Wind Pressure Humidity
00:00 +8°C° 0 mm 2 mps 750 mmHg 60%
01:00 +8°C° 0 mm 2 mps 750 mmHg 62%
02:00 +8°C° 0 mm 1 mps 750 mmHg 64%
03:00 +8°C° 0 mm 1 mps 750 mmHg 65%
04:00 +7°C° 0 mm 1 mps 751 mmHg 66%
05:00 +7°C° 0 mm 1 mps 751 mmHg 66%
06:00 +8°C° 0 mm 1 mps 751 mmHg 66%
07:00 +8°C° 0 mm 1 mps 751 mmHg 66%
08:00 +9°C° 0 mm 1 mps 751 mmHg 60%
09:00 +10°C° 0 mm 2 mps 751 mmHg 53%
10:00 +12°C° 0 mm 2 mps 751 mmHg 47%
11:00 +13°C° 0 mm 2 mps 751 mmHg 44%
12:00 +14°C° 0 mm 2 mps 751 mmHg 41%
13:00 +15°C° 0 mm 2 mps 750 mmHg 37%
14:00 +15°C° 0 mm 2 mps 750 mmHg 36%
15:00 +15°C° 0 mm 2 mps 750 mmHg 36%
16:00 +16°C° 0 mm 2 mps 750 mmHg 35%
17:00 +14°C° 0 mm 2 mps 750 mmHg 38%
18:00 +13°C° 0 mm 2 mps 750 mmHg 42%
19:00 +12°C° 0 mm 2 mps 750 mmHg 46%
20:00 +11°C° 0 mm 1 mps 750 mmHg 47%
21:00 +11°C° 0 mm 1 mps 750 mmHg 48%
22:00 +10°C° 0 mm 1 mps 750 mmHg 50%
23:00 +10°C° 0 mm 1 mps 750 mmHg 51%

28 September, Monday

Time Temperature Precipitation Wind Pressure Humidity
00:00 +9°C° 0 mm 1 mps 750 mmHg 52%
01:00 +9°C° 0 mm 1 mps 750 mmHg 52%
02:00 +9°C° 0 mm 1 mps 750 mmHg 54%
03:00 +8°C° 0 mm 1 mps 750 mmHg 55%
04:00 +8°C° 0 mm 1 mps 750 mmHg 56%
05:00 +8°C° 0 mm 1 mps 750 mmHg 56%
06:00 +8°C° 0 mm 1 mps 750 mmHg 56%
07:00 +8°C° 0 mm 1 mps 750 mmHg 56%
08:00 +10°C° 0 mm 1 mps 750 mmHg 52%
09:00 +12°C° 0 mm 1 mps 750 mmHg 47%
10:00 +13°C° 0 mm 1 mps 749 mmHg 42%
11:00 +14°C° 0 mm 1 mps 749 mmHg 40%
12:00 +15°C° 0 mm 1 mps 749 mmHg 39%
13:00 +16°C° 0 mm 1 mps 749 mmHg 38%
14:00 +16°C° 0 mm 1 mps 749 mmHg 38%
15:00 +16°C° 0 mm 1 mps 749 mmHg 38%
16:00 +16°C° 0 mm 0 mps 748 mmHg 38%
17:00 +16°C° 0 mm 1 mps 748 mmHg 41%
18:00 +15°C° 0 mm 1 mps 748 mmHg 44%
19:00 +14°C° 0 mm 1 mps 748 mmHg 47%
20:00 +13°C° 0 mm 1 mps 748 mmHg 47%
21:00 +13°C° 0 mm 1 mps 748 mmHg 48%
22:00 +12°C° 0 mm 1 mps 748 mmHg 49%
23:00 +12°C° 0 mm 1 mps 748 mmHg 50%

29 September, Tuesday

Time Temperature Precipitation Wind Pressure Humidity
00:00 +12°C° 0 mm 1 mps 749 mmHg 51%
01:00 +12°C° 0 mm 1 mps 749 mmHg 52%
02:00 +10°C° 0 mm 0 mps 749 mmHg 52%
03:00 +10°C° 0 mm 0 mps 748 mmHg 53%
04:00 +10°C° 0 mm 0 mps 748 mmHg 54%
05:00 +10°C° 0 mm 0 mps 749 mmHg 55%
06:00 +10°C° 0 mm 0 mps 749 mmHg 56%
07:00 +10°C° 0 mm 0 mps 749 mmHg 57%
08:00 +11°C° 0 mm 0 mps 749 mmHg 52%
09:00 +14°C° 0 mm 1 mps 749 mmHg 47%
10:00 +15°C° 0 mm 1 mps 748 mmHg 42%
11:00 +16°C° 0 mm 1 mps 748 mmHg 41%
12:00 +18°C° 0 mm 1 mps 748 mmHg 39%
13:00 +19°C° 0 mm 1 mps 748 mmHg 38%
14:00 +19°C° 0 mm 1 mps 748 mmHg 38%
15:00 +19°C° 0 mm 1 mps 748 mmHg 38%
16:00 +19°C° 0 mm 1 mps 748 mmHg 38%
17:00 +18°C° 0 mm 1 mps 748 mmHg 42%
18:00 +16°C° 0 mm 1 mps 748 mmHg 46%
19:00 +15°C° 0 mm 1 mps 748 mmHg 50%
20:00 +14°C° 0 mm 2 mps 748 mmHg 53%
21:00 +14°C° 0 mm 2 mps 748 mmHg 56%
22:00 +12°C° 0 mm 3 mps 748 mmHg 59%
23:00 +11°C° 0 mm 3 mps 748 mmHg 61%
Show more